Tracking 19794 objects as of 21-Jul-2019
HD Live streaming from Space Station
objects crossing your sky now

FENGYUN 1C DEB

Track FENGYUN 1C DEB now!
10-day predictions


NORAD ID: 31062
Int'l Code: 1999-025BFG
Perigee: 861.7 km
Apogee: 1,119.5 km
Inclination: 99.2 °
Period: 104.8 minutes
Semi major axis: 7361 km
RCS: 0.0043 m2 (small)
Launch date: May 10, 1999
Source: People's Republic of China (PRC)
Launch site: Taiyaun Space Center, China (TSC)

Note: This is SATELLITE DEBRIS
aabbcc
Your satellite tracking list
Your tracking list is empty




NASA's NSSDC Master Catalog

Two Line Element Set (TLE):
1 31062U 99025BFG 19201.93839299 -.00000006 +00000-0 +34637-4 0  9996
2 31062 099.2395 098.4986 0175124 010.9235 047.2364 13.74498159621225
Source of the keplerian elements: AFSPC